Previsão horária em Kabaevka

Hoje, 19 Junho, Sábado

Tempo Temperatura Precipitação Vento Pressão Humidade
00:00 +13°C° 0 mm 1 m/s 754 mmHg 81%
01:00 +12°C° 0 mm 1 m/s 755 mmHg 81%
02:00 +12°C° 0 mm 1 m/s 755 mmHg 80%
03:00 +12°C° 0 mm 1 m/s 755 mmHg 80%
04:00 +12°C° 0 mm 1 m/s 755 mmHg 79%
05:00 +13°C° 0 mm 1 m/s 755 mmHg 75%
06:00 +15°C° 0 mm 1 m/s 755 mmHg 72%
07:00 +16°C° 0 mm 1 m/s 755 mmHg 69%
08:00 +18°C° 0 mm 2 m/s 755 mmHg 65%
09:00 +19°C° 0 mm 3 m/s 755 mmHg 61%
10:00 +20°C° 0 mm 4 m/s 755 mmHg 57%
11:00 +21°C° 0 mm 4 m/s 755 mmHg 56%
12:00 +22°C° 0 mm 5 m/s 754 mmHg 54%
13:00 +22°C° 0 mm 5 m/s 754 mmHg 53%
14:00 +23°C° 0 mm 5 m/s 754 mmHg 54%
15:00 +23°C° 0 mm 6 m/s 753 mmHg 55%
16:00 +23°C° 0 mm 6 m/s 753 mmHg 56%
17:00 +23°C° 0 mm 6 m/s 753 mmHg 60%
18:00 +22°C° 0 mm 5 m/s 752 mmHg 65%
19:00 +22°C° 0 mm 5 m/s 752 mmHg 70%
20:00 +20°C° 0 mm 4 m/s 752 mmHg 75%
21:00 +19°C° 0 mm 4 m/s 752 mmHg 81%
22:00 +17°C° 0 mm 4 m/s 752 mmHg 87%
23:00 +17°C° 0 mm 4 m/s 752 mmHg 87%

Amanhã, 20 Junho, Domingo

Tempo Temperatura Precipitação Vento Pressão Humidade
00:00 +17°C° 0 mm 4 m/s 751 mmHg 87%
01:00 +17°C° 0 mm 4 m/s 751 mmHg 87%
02:00 +17°C° 0 mm 4 m/s 751 mmHg 89%
03:00 +17°C° 0 mm 4 m/s 751 mmHg 91%
04:00 +15°C° 0 mm 4 m/s 751 mmHg 94%
05:00 +18°C° 0 mm 4 m/s 751 mmHg 90%
06:00 +19°C° 0 mm 5 m/s 751 mmHg 86%
07:00 +21°C° 0 mm 5 m/s 751 mmHg 82%
08:00 +22°C° 0 mm 5 m/s 751 mmHg 76%
09:00 +25°C° 0 mm 5 m/s 751 mmHg 71%
10:00 +26°C° 0 mm 5 m/s 751 mmHg 65%
11:00 +27°C° 0 mm 5 m/s 751 mmHg 63%
12:00 +28°C° 0 mm 5 m/s 751 mmHg 61%
13:00 +29°C° 0 mm 6 m/s 751 mmHg 58%
14:00 +28°C° 0.2 mm 6 m/s 751 mmHg 60%
15:00 +28°C° 0.2 mm 6 m/s 751 mmHg 62%
16:00 +28°C° 0.2 mm 6 m/s 751 mmHg 63%
17:00 +27°C° 0.1 mm 5 m/s 751 mmHg 65%
18:00 +26°C° 0.1 mm 4 m/s 751 mmHg 67%
19:00 +25°C° 0.1 mm 4 m/s 752 mmHg 68%
20:00 +22°C° 0 mm 3 m/s 752 mmHg 69%
21:00 +20°C° 0 mm 3 m/s 752 mmHg 69%
22:00 +18°C° 0 mm 2 m/s 752 mmHg 69%
23:00 +18°C° 0 mm 2 m/s 753 mmHg 69%

Depois de amanhã, 21 Junho, Segunda-feira

Tempo Temperatura Precipitação Vento Pressão Humidade
00:00 +18°C° 0 mm 1 m/s 753 mmHg 68%
01:00 +16°C° 0 mm 1 m/s 753 mmHg 68%
02:00 +16°C° 0 mm 1 m/s 753 mmHg 69%
03:00 +15°C° 0 mm 1 m/s 754 mmHg 70%
04:00 +15°C° 0 mm 1 m/s 754 mmHg 70%
05:00 +16°C° 0 mm 1 m/s 754 mmHg 68%
06:00 +18°C° 0 mm 1 m/s 754 mmHg 65%
07:00 +20°C° 0 mm 1 m/s 754 mmHg 62%
08:00 +21°C° 0 mm 1 m/s 754 mmHg 58%
09:00 +22°C° 0 mm 1 m/s 754 mmHg 53%
10:00 +24°C° 0 mm 1 m/s 755 mmHg 49%
11:00 +25°C° 0 mm 1 m/s 754 mmHg 48%
12:00 +26°C° 0 mm 1 m/s 754 mmHg 48%
13:00 +27°C° 0 mm 1 m/s 754 mmHg 47%
14:00 +27°C° 0 mm 1 m/s 754 mmHg 49%
15:00 +28°C° 0 mm 2 m/s 754 mmHg 51%
16:00 +28°C° 0 mm 2 m/s 754 mmHg 53%
17:00 +28°C° 0.1 mm 2 m/s 753 mmHg 59%
18:00 +27°C° 0.1 mm 2 m/s 753 mmHg 66%
19:00 +26°C° 0.1 mm 2 m/s 753 mmHg 73%
20:00 +25°C° 0.3 mm 2 m/s 753 mmHg 77%
21:00 +23°C° 0.3 mm 2 m/s 753 mmHg 81%
22:00 +22°C° 0.3 mm 1 m/s 753 mmHg 85%
23:00 +20°C° 0.2 mm 2 m/s 753 mmHg 87%

22 Junho, Terça-feira

Tempo Temperatura Precipitação Vento Pressão Humidade
00:00 +20°C° 0.2 mm 2 m/s 753 mmHg 88%
01:00 +20°C° 0.2 mm 2 m/s 752 mmHg 90%
02:00 +19°C° 0 mm 2 m/s 752 mmHg 90%
03:00 +19°C° 0 mm 2 m/s 752 mmHg 91%
04:00 +19°C° 0 mm 2 m/s 752 mmHg 92%
05:00 +20°C° 0 mm 3 m/s 752 mmHg 89%
06:00 +21°C° 0 mm 3 m/s 753 mmHg 86%
07:00 +24°C° 0 mm 3 m/s 753 mmHg 84%
08:00 +25°C° 0.3 mm 4 m/s 753 mmHg 79%
09:00 +26°C° 0.3 mm 4 m/s 752 mmHg 74%
10:00 +28°C° 0.3 mm 5 m/s 752 mmHg 70%
11:00 +29°C° 0.1 mm 5 m/s 752 mmHg 64%
12:00 +30°C° 0.1 mm 5 m/s 752 mmHg 58%
13:00 +32°C° 0.1 mm 5 m/s 752 mmHg 52%
14:00 +32°C° 0 mm 5 m/s 752 mmHg 52%
15:00 +32°C° 0 mm 5 m/s 752 mmHg 52%
16:00 +32°C° 0 mm 5 m/s 752 mmHg 52%
17:00 +30°C° 0 mm 4 m/s 752 mmHg 58%
18:00 +29°C° 0 mm 4 m/s 752 mmHg 64%
19:00 +28°C° 0 mm 3 m/s 752 mmHg 70%
20:00 +27°C° 0 mm 3 m/s 752 mmHg 74%
21:00 +25°C° 0 mm 2 m/s 752 mmHg 77%
22:00 +24°C° 0 mm 2 m/s 752 mmHg 81%
23:00 +23°C° 0.1 mm 2 m/s 752 mmHg 82%

23 Junho, Quarta-feira

Tempo Temperatura Precipitação Vento Pressão Humidade
00:00 +23°C° 0.1 mm 2 m/s 752 mmHg 83%
01:00 +21°C° 0.1 mm 2 m/s 751 mmHg 84%
02:00 +21°C° 0.2 mm 2 m/s 751 mmHg 85%
03:00 +21°C° 0.2 mm 2 m/s 751 mmHg 87%
04:00 +21°C° 0.2 mm 1 m/s 751 mmHg 88%
05:00 +23°C° 0.2 mm 2 m/s 751 mmHg 85%
06:00 +24°C° 0.2 mm 2 m/s 751 mmHg 82%
07:00 +25°C° 0.2 mm 2 m/s 752 mmHg 79%
08:00 +26°C° 0 mm 3 m/s 752 mmHg 75%
09:00 +27°C° 0 mm 4 m/s 752 mmHg 72%
10:00 +28°C° 0 mm 5 m/s 752 mmHg 68%
11:00 +28°C° 0.1 mm 5 m/s 752 mmHg 62%
12:00 +29°C° 0.1 mm 5 m/s 752 mmHg 57%
13:00 +29°C° 0.1 mm 5 m/s 752 mmHg 52%
14:00 +29°C° 0 mm 5 m/s 752 mmHg 52%
15:00 +28°C° 0 mm 5 m/s 753 mmHg 52%
16:00 +28°C° 0 mm 5 m/s 753 mmHg 51%
17:00 +27°C° 0 mm 4 m/s 753 mmHg 56%
18:00 +26°C° 0 mm 4 m/s 753 mmHg 61%
19:00 +25°C° 0 mm 3 m/s 752 mmHg 66%
20:00 +22°C° 0 mm 3 m/s 753 mmHg 69%
21:00 +21°C° 0 mm 2 m/s 753 mmHg 73%
22:00 +19°C° 0 mm 2 m/s 753 mmHg 76%
23:00 +19°C° 0 mm 2 m/s 753 mmHg 76%

24 Junho, Quinta-feira

Tempo Temperatura Precipitação Vento Pressão Humidade
00:00 +18°C° 0 mm 2 m/s 753 mmHg 76%
01:00 +17°C° 0 mm 2 m/s 753 mmHg 76%
02:00 +18°C° 0 mm 1 m/s 753 mmHg 76%
03:00 +16°C° 0 mm 1 m/s 753 mmHg 76%
04:00 +16°C° 0 mm 1 m/s 753 mmHg 77%
05:00 +18°C° 0 mm 1 m/s 753 mmHg 73%
06:00 +20°C° 0 mm 1 m/s 754 mmHg 69%
07:00 +21°C° 0 mm 1 m/s 754 mmHg 65%
08:00 +22°C° 0 mm 1 m/s 754 mmHg 60%
09:00 +24°C° 0 mm 1 m/s 754 mmHg 54%
10:00 +25°C° 0 mm 1 m/s 754 mmHg 49%
11:00 +26°C° 0 mm 1 m/s 754 mmHg 48%
12:00 +27°C° 0 mm 1 m/s 754 mmHg 46%
13:00 +28°C° 0 mm 1 m/s 754 mmHg 45%
14:00 +28°C° 0 mm 1 m/s 753 mmHg 46%
15:00 +29°C° 0 mm 1 m/s 753 mmHg 46%
16:00 +27°C° 0 mm 0 m/s 753 mmHg 46%
17:00 +27°C° 0 mm 0 m/s 753 mmHg 52%
18:00 +28°C° 0 mm 1 m/s 753 mmHg 57%
19:00 +28°C° 0 mm 1 m/s 752 mmHg 62%
20:00 +26°C° 0 mm 1 m/s 752 mmHg 64%
21:00 +24°C° 0 mm 1 m/s 752 mmHg 67%
22:00 +23°C° 0 mm 1 m/s 752 mmHg 70%
23:00 +22°C° 0 mm 1 m/s 752 mmHg 72%
Mostrar mais

Necessitamos do seu Consentimento

A Meteoprog e os seus Fornecedores de Serviços podem armazenar e aceder a dados pessoais como cookies, identificadores do dispositivo ou outras tecnologias semelhantes existentes no seu dispositivo e processar estes dados para personalizar conteúdos e anúncios, assim como funcionalidades nas redes sociais e análise de tráfego.

  • Armazenar e/ou aceder a informações no seu dispositivo

    Os cookies, identificadores do dispositivo ou outras informações podem ser armazenados ou acedidos no seu dispositivo, para os fins acima indicados.

  • Anúncios e conteúdos personalizados, medição de anúncios e conteúdos, dados sobre o público-alvo e desenvolvimento de produtos

    Os anúncios e os conteúdos podem ser personalizados com base num perfil. Podem ser adicionados dados adicionais para uma maior personalização dos anúncios e dos conteúdos. A eficácia dos anúncios e dos conteúdos pode ser medida. Podem ser obtidas informações sobre o público que visualizou os anúncios e os conteúdos. Estes dados podem ser usados para desenvolver ou melhorar sistemas, softwares ou a experiência do utilizador.

Ao clicar em "Eu concordo”, permitirá o uso de cookies, identificadores do dispositivo e web beacons mencionados ou outras tecnologias semelhantes. As configurações do navegador do seu dispositivo podem ser alteradas.

Para certos fins, podem ser invocados interesses legítimos ao invés de consentimento. Pode ler mais informação sobre este assunto na nossa Política de Privacidade e Cookies.